Theta_e
344 343 341 335 325 324 313 319 327 321 319 325 329 332 332 335 332 322 340 341 348 349 352 351 352 353 353 355 356 356 356 358 359 359 359 359 358 358 357 356 355 354 353 352 353 353 352 352 351
339 333 334 330 320 312 313 323 322 325 329 329 331 331 334 334 341 338 336 344 349 350 351 351 355 355 353 354 354 354 358 359 359 359 358 358 357 356 355 354 353 353 353 352 352 352 351 351 351
332 332 323 320 318 312 311 325 327 329 330 329 330 338 338 336 338 339 342 346 349 348 350 354 354 356 355 356 356 357 358 359 358 357 357 356 355 355 354 353 353 353 353 352 352 352 351 351 351
329 326 325 315 314 319 320 327 330 329 331 333 333 335 343 348 344 348 343 346 345 346 349 352 353 356 355 356 356 357 357 358 358 357 356 355 354 354 353 353 353 353 353 353 352 352 351 351 351
328 322 315 315 315 320 324 328 331 328 330 332 334 333 337 345 349 347 342 344 342 344 348 350 353 354 355 356 355 356 356 357 357 357 355 354 354 353 353 353 353 353 353 353 353 353 353 353 354
318 321 312 312 315 321 326 329 330 330 332 332 332 336 337 347 344 341 340 343 342 344 345 349 353 353 352 354 354 355 355 356 356 355 354 353 353 352 353 353 352 352 354 355 356 356 357 357 357
314 315 313 315 315 318 323 332 329 330 332 331 338 333 339 344 342 340 340 343 344 345 347 348 349 351 352 354 354 354 354 353 353 353 353 352 352 351 350 347 351 353 354 355 356 357 358 358 358
317 316 312 315 314 315 329 331 333 331 333 341 341 334 332 342 343 341 340 342 344 343 347 346 348 349 349 349 352 353 353 352 352 351 352 353 353 353 352 349 352 352 352 353 354 354 355 356 358
319 310 309 313 315 319 330 328 333 337 336 335 338 340 343 344 343 340 338 339 342 342 343 344 345 347 347 346 350 352 352 352 352 352 352 350 350 354 353 352 350 350 349 349 349 349 350 353 355
311 309 311 319 321 320 328 328 331 331 332 334 337 343 343 342 340 336 331 335 337 338 340 343 345 346 347 347 350 350 348 347 348 350 354 349 349 350 346 353 353 352 352 352 352 352 356 356 350
310 308 315 317 321 320 323 327 334 330 329 335 336 337 339 339 338 334 331 331 331 335 338 340 344 347 344 343 346 346 347 348 351 352 352 349 345 345 346 350 354 356 353 352 351 351 349 347 347
307 311 313 316 319 319 322 328 331 332 331 341 342 339 338 336 334 333 332 331 330 333 336 340 344 347 347 343 344 344 344 345 345 347 350 348 345 348 347 346 347 348 346 346 346 343 348 347 347
308 310 313 315 316 321 325 324 328 331 336 343 343 340 338 337 335 335 336 334 334 332 335 336 341 344 346 347 345 347 346 344 345 346 350 350 349 352 351 351 350 349 348 346 345 345 346 346 347
310 310 311 314 314 319 322 324 330 332 341 341 340 340 340 338 336 336 334 334 335 335 336 338 342 349 347 350 350 347 345 347 347 347 347 350 350 351 349 350 348 347 345 344 343 343 344 344 345
309 307 309 312 319 318 324 320 325 332 338 336 337 339 340 340 338 335 335 336 337 338 340 343 347 350 351 350 349 347 346 345 344 343 342 342 344 347 346 345 344 341 342 340 340 341 342 341 342
308 309 305 311 318 319 323 311 325 332 333 333 334 334 336 338 337 338 337 338 339 339 340 343 343 345 346 346 344 343 342 341 340 339 338 336 336 338 342 340 336 335 336 335 333 333 334 334 334
310 304 305 308 318 318 320 313 319 331 332 332 333 331 331 333 338 339 337 337 338 339 340 340 343 342 341 343 342 341 340 338 337 336 334 333 331 332 334 332 331 331 330 328 325 326 326 322 321
305 306 307 307 316 317 315 315 326 329 329 330 332 331 331 331 332 336 335 336 337 338 339 340 340 341 340 341 342 338 336 334 333 330 328 328 326 327 330 328 326 325 323 321 321 324 322 321 318
307 305 306 309 314 317 315 317 322 327 328 329 331 331 331 332 335 333 332 332 334 336 337 338 337 338 338 341 341 334 331 329 326 323 323 323 323 323 324 323 322 321 319 320 321 322 320 317 319
305 303 303 307 311 311 313 314 317 323 327 329 329 331 331 331 332 330 329 329 330 332 335 336 336 335 336 337 339 336 329 326 322 321 319 320 319 319 319 319 318 319 317 318 318 319 317 315 316
304 303 303 303 308 310 308 310 313 318 326 327 329 331 332 332 330 328 328 328 329 330 332 334 335 333 335 335 331 328 324 321 319 318 316 316 316 317 318 318 317 316 316 312 315 316 317 312 314
302 307 305 304 303 299 309 299 309 313 315 323 325 328 330 330 332 328 327 327 327 328 330 331 333 331 330 331 330 328 325 322 320 318 315 315 315 315 315 315 315 315 312 313 311 313 315 315 311
304 308 306 305 304 303 303 300 304 312 310 315 324 326 328 331 331 328 327 327 327 326 325 327 329 330 329 329 329 326 327 320 318 316 316 316 315 314 314 315 315 314 312 313 313 314 314 311 311
310 307 307 306 304 297 302 301 302 305 308 312 317 325 327 329 331 330 329 327 325 323 322 324 325 325 326 325 325 324 321 318 315 314 313 312 312 312 313 313 315 314 313 312 311 313 313 312 312
309 305 297 296 296 295 304 301 303 309 312 313 315 317 323 325 329 328 325 322 321 319 319 320 321 320 320 320 320 319 319 318 317 315 313 312 310 310 312 314 313 312 312 312 312 311 311 310 309
308 306 299 292 294 297 305 299 304 312 314 316 318 318 320 323 328 327 324 321 318 317 317 317 317 317 318 318 317 318 317 314 314 316 313 312 311 310 312 312 312 311 311 310 310 308 308 310 308
307 303 308 300 303 298 301 305 309 312 314 314 315 316 317 325 326 324 321 319 317 316 317 317 316 316 316 316 315 315 315 314 313 314 315 313 314 311 310 310 310 309 309 309 310 307 308 308 308
306 310 302 301 294 293 299 300 301 305 309 312 312 315 321 323 322 321 318 316 315 315 316 317 316 315 315 314 314 313 313 312 312 312 313 314 313 312 309 308 308 308 308 308 309 307 307 307 306
302 300 303 304 302 296 293 299 310 307 310 310 312 316 318 319 319 317 315 314 313 313 313 314 314 313 313 313 313 313 312 311 310 310 310 311 312 311 308 307 307 306 307 308 308 307 306 305 306
302 301 304 297 293 298 297 298 310 312 312 313 313 314 316 318 316 315 313 311 311 311 311 310 311 311 309 309 309 308 308 309 307 306 307 308 309 309 307 305 305 305 306 306 305 304 304 304 302
Wind_Speed
11 15 10 8 10 8 9 9 11 11 9 10 10 9 15 15 14 8 12 11 17 19 16 14 13 12 12 11 12 10 10 10 11 11 11 12 11 11 10 10 9 10 10 10 10 9 9 8 8
15 10 9 9 15 8 6 10 11 10 14 8 10 5 11 14 10 16 13 15 18 17 15 14 11 12 12 11 11 12 10 10 10 11 11 11 10 10 9 9 8 8 8 8 8 8 7 7 7
15 11 11 11 11 4 19 13 11 11 9 8 6 10 10 9 10 15 18 16 19 15 15 15 12 12 12 11 10 9 9 10 10 10 10 10 9 9 8 8 8 8 7 7 7 6 6 7 7
8 10 10 12 16 15 7 13 9 14 11 5 7 13 9 11 11 9 17 16 16 17 17 15 13 12 11 11 9 8 8 9 9 9 9 9 9 8 7 6 6 6 7 7 6 6 6 6 6
10 10 13 18 12 2 4 4 9 13 8 9 8 14 9 4 14 17 17 15 14 17 18 16 13 12 11 10 9 8 7 8 8 7 7 7 7 6 5 5 6 6 6 6 6 6 6 6 6
11 12 14 16 10 7 1 4 3 6 8 6 7 15 7 5 15 16 15 15 12 11 17 15 12 10 11 9 9 7 6 6 6 6 5 5 5 4 4 4 4 5 6 6 7 6 7 8 7
16 14 17 23 7 6 3 6 9 10 13 5 13 11 11 13 16 15 14 16 15 11 16 13 13 12 9 10 8 6 6 5 4 4 4 2 1 2 2 2 2 4 4 5 6 7 7 7 8
13 14 22 20 11 3 7 9 9 6 15 5 2 9 13 18 18 16 15 15 16 12 11 13 12 13 12 12 10 8 5 3 2 1 1 4 7 9 8 7 6 5 3 2 1 3 6 7 8
14 14 16 22 16 3 11 14 7 8 10 7 4 12 24 22 19 17 15 14 12 9 10 11 14 9 11 14 11 9 8 6 6 8 9 10 10 11 15 10 4 1 1 1 2 4 8 10 11
16 15 22 20 13 3 14 10 12 7 12 9 11 19 23 22 20 17 16 14 15 14 14 12 9 11 11 5 11 10 10 9 10 8 5 7 2 3 6 4 11 9 9 8 8 9 12 14 6
19 20 19 20 10 8 5 12 14 13 11 12 17 20 22 21 17 18 18 17 14 15 13 15 12 11 12 10 8 7 6 5 3 4 4 4 5 6 8 5 9 10 12 8 11 10 6 11 7
20 20 24 22 6 5 15 8 15 13 3 21 20 19 20 19 18 17 15 13 14 13 11 9 10 7 7 6 5 6 5 5 4 5 3 5 5 4 4 4 7 3 3 4 4 5 6 7 7
19 19 18 21 14 7 12 14 12 13 5 18 19 19 19 17 16 14 12 10 10 12 11 11 10 9 6 4 5 4 3 5 3 3 2 7 5 4 4 5 6 4 5 5 6 6 6 8 9
15 16 23 13 16 15 13 15 10 12 12 15 19 19 18 17 14 13 13 12 10 10 11 10 10 9 10 7 4 4 3 5 3 3 4 1 4 3 4 3 3 4 4 5 5 6 6 6 8
15 15 19 14 14 18 10 19 14 19 16 16 16 15 16 15 14 14 13 12 10 8 8 9 8 8 5 6 6 4 5 5 4 5 4 4 5 2 5 3 3 5 6 7 6 7 6 7 7
15 17 17 21 19 16 10 20 20 18 19 20 17 13 13 14 15 14 13 11 10 9 8 8 7 9 7 6 5 5 4 4 4 4 4 5 5 4 1 2 4 6 5 5 6 7 7 7 7
14 16 21 21 22 16 17 19 23 24 21 21 20 17 15 14 14 13 12 11 10 9 9 8 6 9 8 6 5 4 5 4 4 4 5 5 5 5 4 4 4 6 5 5 6 6 5 6 6
15 18 16 17 18 17 19 20 17 18 20 18 19 19 18 18 17 13 13 12 11 10 10 6 7 7 6 3 5 5 5 4 4 5 6 6 6 6 6 4 5 5 5 5 6 4 5 4 7
21 16 12 15 11 20 19 19 22 21 20 20 18 19 18 19 19 17 14 13 11 11 11 11 8 9 9 8 8 6 6 4 5 5 5 6 6 6 6 4 3 4 6 6 7 5 3 5 8
16 15 17 16 15 13 14 20 20 23 20 20 20 18 20 19 19 18 18 15 14 12 12 12 11 9 8 6 5 1 4 3 4 5 6 8 7 6 7 5 4 6 5 7 7 7 5 5 8
16 17 17 18 15 17 16 19 22 22 26 17 18 20 20 21 21 19 19 17 15 14 13 12 12 11 9 5 5 4 5 6 5 6 5 6 6 7 7 6 5 5 6 6 7 7 7 4 5
17 17 18 18 17 16 19 16 22 23 23 24 20 19 19 20 21 20 19 18 16 13 12 11 11 10 7 7 8 7 7 6 6 4 6 6 7 7 8 5 6 7 5 7 6 5 4 6 6
17 17 18 17 18 22 24 17 17 20 25 24 26 24 24 24 23 22 20 17 15 13 11 10 10 10 9 8 5 6 6 6 5 6 7 8 6 6 6 5 5 5 5 7 6 6 9 6 6
12 14 19 17 15 19 21 21 19 19 19 21 20 23 24 24 24 21 19 15 13 12 11 11 11 9 8 7 5 4 7 6 7 7 7 7 7 6 5 6 6 6 5 6 6 7 9 8 7
19 16 14 17 17 17 21 23 20 22 18 21 13 20 23 26 25 22 19 16 13 13 12 11 11 10 9 9 8 8 7 6 6 7 4 6 6 6 5 5 4 6 6 6 6 7 7 8 7
22 15 13 24 19 19 19 21 22 20 13 6 8 2 3 14 20 21 18 15 14 14 13 12 12 12 11 10 10 8 8 7 6 1 6 3 6 6 5 5 6 6 5 5 4 5 6 5 6
17 17 20 19 19 21 22 26 24 10 11 5 3 5 8 16 19 19 18 14 14 14 13 12 12 12 11 10 9 8 5 4 9 6 3 5 7 7 6 5 6 5 5 4 4 5 5 4 3
23 19 20 15 21 25 19 23 4 7 1 7 4 4 9 13 17 18 17 14 13 12 11 12 12 12 12 11 9 8 8 7 6 5 6 6 7 8 6 5 5 4 5 4 2 5 5 4 4
19 16 15 17 15 16 14 11 8 4 9 4 4 8 11 12 15 15 16 14 14 13 13 12 12 12 11 10 9 9 9 7 6 6 7 7 6 6 5 4 3 4 5 4 4 4 4 5 5
18 20 12 7 6 9 13 15 12 12 8 2 7 9 15 15 15 16 16 15 13 12 12 11 8 11 14 13 11 10 6 7 6 6 6 5 4 4 4 6 4 3 5 4 4 3 4 4 4
Wind_Direction
211 217 243 257 244 200 169 256 71 108 131 62 96 29 67 41 15 96 111 135 122 118 124 134 137 133 130 126 128 130 124 116 111 107 100 95 91 86 82 78 73 70 68 63 61 58 54 52 47
279 274 241 270 249 328 296 104 128 102 76 110 98 170 69 63 56 126 129 132 117 123 132 134 133 132 131 130 133 130 121 113 107 102 100 96 92 84 75 68 64 62 59 59 57 50 40 37 37
261 265 274 242 260 156 238 92 121 108 142 161 102 44 42 88 131 151 116 138 117 131 126 116 131 130 131 129 128 125 116 110 103 101 98 93 84 74 65 55 43 44 42 44 42 41 30 21 13
265 237 238 253 281 197 69 141 139 145 167 142 131 85 91 35 136 109 148 138 142 136 120 129 135 131 134 128 128 122 111 104 104 99 94 89 81 72 58 45 39 30 21 18 19 16 10 359 349
240 263 265 254 244 105 348 93 170 157 117 137 172 121 94 40 101 138 143 142 138 132 117 132 133 138 130 132 132 127 114 104 96 97 91 87 81 68 54 33 17 12 3 354 349 347 332 335 328
249 249 266 257 258 88 184 156 198 103 126 105 146 104 96 203 140 141 149 134 140 112 131 135 140 136 147 133 136 134 133 110 105 102 94 81 71 66 52 38 8 354 330 324 317 318 312 312 310
247 258 248 270 210 177 172 169 198 185 158 171 137 133 125 195 145 148 149 134 126 161 116 133 143 149 145 145 143 131 114 100 102 92 91 91 138 168 193 160 0 336 300 296 298 298 301 297 294
248 257 269 263 279 301 102 174 181 192 74 85 332 161 161 165 152 156 146 140 138 138 140 166 148 158 169 159 163 148 143 140 135 161 211 236 226 209 211 177 79 16 6 15 295 279 272 262 252
238 257 251 249 234 73 137 166 135 68 137 163 173 146 142 145 152 149 161 144 126 139 165 143 174 156 180 162 149 165 178 190 205 215 218 239 237 185 174 95 109 165 312 282 271 261 255 247 240
233 237 245 253 275 221 168 176 151 189 154 149 119 101 134 154 166 153 166 154 161 168 164 160 169 163 182 160 149 200 177 197 201 200 177 242 111 341 321 147 177 194 198 214 219 238 251 251 235
220 245 248 257 308 336 281 193 139 210 175 160 139 145 155 164 166 171 171 168 165 164 165 170 172 177 181 193 172 184 175 206 184 241 257 253 300 205 213 184 188 196 205 210 210 213 245 359 322
230 240 255 272 237 212 265 192 156 215 27 139 143 158 161 168 173 172 166 156 162 155 157 154 158 180 244 181 204 189 216 177 197 166 223 234 232 194 272 309 354 241 14 339 287 315 16 299 310
237 238 246 259 278 230 259 267 189 158 134 126 146 164 167 170 174 166 128 142 153 164 153 177 153 176 185 233 181 226 192 205 112 198 87 306 289 6 311 14 308 335 345 341 330 325 340 310 294
246 245 256 242 233 243 234 234 159 134 133 140 160 173 169 172 157 141 158 149 162 161 164 140 177 157 183 212 184 164 200 92 179 100 37 80 319 0 304 284 328 336 338 335 327 346 311 313 304
258 262 238 236 237 244 222 241 195 156 165 159 172 171 168 162 152 162 160 160 160 160 155 165 158 167 161 142 172 173 173 142 129 106 83 63 360 67 322 4 330 8 332 327 329 323 314 303 297
231 235 251 212 218 222 211 232 193 158 179 169 163 171 175 170 169 172 159 159 155 152 167 178 171 150 167 147 172 152 135 128 123 114 93 55 52 21 296 358 20 354 323 333 339 325 320 317 327
209 242 221 257 180 218 206 242 237 170 186 178 166 175 180 179 190 164 162 161 164 163 169 175 177 153 158 158 141 127 124 133 108 108 84 46 45 25 342 25 35 322 341 0 341 338 356 325 320
227 211 250 224 176 203 219 229 148 179 188 188 174 174 183 185 190 175 179 170 173 173 166 177 176 117 123 149 174 143 135 126 101 66 56 17 36 21 337 57 6 340 21 20 355 336 351 349 336
291 299 286 261 232 195 220 238 175 184 193 186 198 180 189 196 181 181 186 176 185 184 176 180 183 164 179 177 204 171 161 118 104 93 73 60 35 38 9 35 24 69 44 23 6 330 69 16 350
267 266 269 279 282 267 228 228 244 177 202 195 194 196 189 190 186 183 184 182 185 185 186 178 187 169 210 186 229 203 123 101 101 92 74 66 55 42 70 16 46 358 93 36 18 19 325 67 22
253 261 267 266 260 233 261 259 252 228 194 207 203 199 198 194 186 186 188 189 187 187 186 184 182 176 207 165 116 127 118 143 163 137 106 84 78 78 68 55 39 54 33 58 17 355 26 38 70
257 255 247 264 270 259 209 253 237 232 243 192 204 202 198 201 193 188 192 190 190 186 185 182 182 169 180 175 172 178 200 185 97 123 92 102 91 80 86 82 76 52 52 51 36 6 341 11 34
262 268 268 258 244 261 253 255 263 230 229 218 202 207 200 196 193 189 189 185 188 178 178 166 169 167 151 184 175 179 214 116 146 113 133 87 86 89 96 90 79 64 80 70 55 39 26 50 29
287 276 261 260 268 253 250 256 254 250 242 255 238 193 207 198 187 183 174 174 182 169 165 156 157 151 154 160 157 208 121 157 135 153 164 149 129 117 90 92 89 75 80 63 58 58 50 49 28
254 242 253 241 230 244 243 246 254 260 256 241 317 201 198 197 177 167 162 169 165 175 156 152 148 145 144 141 133 132 135 144 136 179 169 146 135 113 95 98 84 89 72 67 54 59 60 52 43
312 297 273 281 277 275 265 246 245 246 218 113 155 170 292 165 153 154 161 163 168 160 158 147 147 142 142 137 132 130 137 161 148 29 127 135 102 99 106 94 95 92 85 77 77 72 67 45 65
286 284 293 305 292 288 282 283 276 152 89 27 336 177 220 143 139 148 149 163 167 156 151 147 147 141 138 130 126 130 113 114 75 101 153 110 100 119 94 94 95 94 79 83 119 64 72 81 42
279 276 284 272 275 267 274 276 7 76 24 40 61 72 104 129 141 144 149 152 145 144 144 143 147 140 132 128 134 123 111 109 113 107 60 80 89 89 110 93 102 100 87 71 349 127 82 65 43
315 310 313 281 311 292 276 283 35 342 27 42 108 127 143 154 143 144 137 141 138 144 147 147 136 134 138 132 111 119 100 89 85 106 120 116 128 126 103 94 101 97 85 83 102 103 91 79 58
278 296 12 322 310 275 274 273 84 351 27 266 115 132 148 149 140 137 134 140 138 149 137 136 125 94 67 63 63 73 83 82 88 92 97 99 115 123 129 125 145 119 112 109 112 78 89 82 73